"Pseudo-MPEC" for P10UHRX

Created 2019 Dec 13 16:07:05 UT using Find_Orb

Click here for an explanation of pseudo-MPECs

 
 Astrometry: 
     P10UHRX  C2019 11 26X(Q[STXMw([NCL6UJC^23Astrometry%hUt8JHK(*redacted;=]F51
     P10UHRX  C2019 11 26Vv7^M@s!cEkrp5s.!`3clickj;a(e/SGm/?+?;B#hvChere%v5RlF51
     P10UHRX  C2019 11 26$%T%ehoZ)QF9^G`mfk3[4j#forPgG0=\/:explanationAc?,+ifF51
     P10UHRX KC2019 12 03.37091 04 09 35.63 +25 33 49.2    ~C39q 21.5 RoNEOCP291
     P10UHRX KC2019 12 03.37813 04 09 35.00 +25 33 47.4    ~C39q 21.6 RoNEOCP291
     P10UHRX KC2019 12 03.38537 04 09 34.42 +25 33 45.8    ~C39q 21.3 RoNEOCP291
     P10UHRX ^C2019 12 03.45245904 09 29.186+25 33 31.97   ~C3J7 21.92GVNEOCP568
     P10UHRX ^C2019 12 03.45340804 09 29.107+25 33 31.72   ~C3J7 21.90GVNEOCP568
     P10UHRX ^C2019 12 03.45435804 09 29.022+25 33 31.49   ~C3J7 21.89GVNEOCP568
     P10UHRX ^C2019 12 03.45530704 09 28.940+25 33 31.26   ~C3J7 21.83GVNEOCP568
     P10UHRX ^C2019 12 03.45625804 09 28.864+25 33 31.03   ~C3J7 21.90GVNEOCP568
     P10UHRX ^C2019 12 03.45720804 09 28.785+25 33 30.79   ~C3J7 21.89GVNEOCP568
     P10UHRX ^C2019 12 03.45817804 09 28.704+25 33 30.54   ~C3J7 21.92GVNEOCP568
     P10UHRX ^C2019 12 03.45913704 09 28.621+25 33 30.32   ~C3J7 21.94GVNEOCP568
     P10UHRX ^C2019 12 03.46008604 09 28.544+25 33 30.09   ~C3J7 21.94GVNEOCP568

Station data:
(291) LPL/Spacewatch II  (N31.961669 W111.599905)  US/Arizona.  Observers J.
   V. Scotti, R. S. McMillan. 1.8-m f/2.7 reflector + CCD.
(568) Mauna Kea  (N19.826116 W155.472200)  US/Hawaii.
(F51) Pan-STARRS 1, Haleakala  (N20.707235 W156.255910)  US/Hawaii.
   Observers N. Primak, A. Schultz, S. Watters, J. Thiel, T. Goggia. Measurer
   PS1 Science Consortium. 1.8-m Ritchey-Chrétien + CCD.

Orbital elements:  P10UHRX
   Perihelion 2019 May 25.984574 +/- 84 TT = 23:37:47 (JD 2458629.484574)
Epoch 2019 Dec  3.0 TT = JDT 2458820.5   Earth MOID: 0.5417   AutoNEOCP
M  74.57139716 +/- 32               (J2000 ecliptic)
n   0.39039463 +/- 0.149            Peri.  349.94016 +/- 56
a   1.85410143 +/- 0.472            Node   344.80712 +/- 12
e   0.1628147 +/- 0.237             Incl.    2.07085 +/- 0.59
P   2.52/922.13d           H 20.9   G  0.15   U 11.5  SR
q 1.55222643 +/- 0.223    Q 2.15597643 +/- 2.7
From 15 observations 2019 Nov. 26-Dec. 3; mean residual 0".28
Residuals in arcseconds: 
191126 F51  .17+  .01+    191203 291  .41-  .50+    191203 568  .20+  .11-    
191126 F51  .11-  .09+    191203 568  .16+  .11-    191203 568  .24+  .12-    
191126 F51  .04-  .11-    191203 568  .19+  .12-    191203 568  .26+  .13-    
191203 291  .63-  .26+    191203 568  .14+  .12-    191203 568  .25+  .11-    
191203 291  .86-  .28+    191203 568  .13+  .12-    191203 568  .31+  .10-    

Ephemerides (geocentric):
Date (UTC) HH   RA              Dec         delta   r     elong  mag " sig PA
---- -- -- --  -------------   -----------  ------ ------ -----  --- ---- ---
2019 12 13 16  03 57 05.910   +24 50 41.53  .88571 1.8439 160.8 22.7  393 165
2019 12 13 17  03 57 03.307   +24 50 30.93  .88594 1.8440 160.7 22.7  395 165
2019 12 13 18  03 57 00.709   +24 50 20.33  .88618 1.8440 160.7 22.7  397 165
2019 12 13 19  03 56 58.114   +24 50 09.73  .88641 1.8441 160.6 22.7  400 165
2019 12 13 20  03 56 55.524   +24 49 59.13  .88665 1.8442 160.5 22.7  402 165
2019 12 13 21  03 56 52.937   +24 49 48.53  .88688 1.8443 160.5 22.7  404 165
2019 12 13 22  03 56 50.354   +24 49 37.94  .88712 1.8444 160.4 22.7  406 165
2019 12 13 23  03 56 47.776   +24 49 27.35  .88735 1.8445 160.4 22.7  408 165
2019 12 14 00  03 56 45.201   +24 49 16.76  .88759 1.8446 160.3 22.7  411 165
2019 12 14 01  03 56 42.631   +24 49 06.18  .88782 1.8446 160.3 22.7  413 165
2019 12 14 02  03 56 40.064   +24 48 55.59  .88806 1.8447 160.2 22.7  415 165
2019 12 14 03  03 56 37.502   +24 48 45.01  .88830 1.8448 160.2 22.7  417 165
2019 12 14 04  03 56 34.944   +24 48 34.44  .88853 1.8449 160.1 22.7  420 165
2019 12 14 05  03 56 32.389   +24 48 23.86  .88877 1.8450 160.1 22.7  422 165
2019 12 14 06  03 56 29.839   +24 48 13.29  .88901 1.8451 160.0 22.7  424 165
2019 12 14 07  03 56 27.293   +24 48 02.72  .88925 1.8452 160.0 22.7  427 165
2019 12 14 08  03 56 24.751   +24 47 52.15  .88949 1.8452 159.9 22.7  429 165
2019 12 14 09  03 56 22.213   +24 47 41.59  .88973 1.8453 159.9 22.7  431 165
2019 12 14 10  03 56 19.679   +24 47 31.03  .88997 1.8454 159.8 22.7  433 166
2019 12 14 11  03 56 17.149   +24 47 20.47  .89021 1.8455 159.8 22.7  436 166
2019 12 14 12  03 56 14.623   +24 47 09.92  .89045 1.8456 159.7 22.7  438 166
2019 12 14 13  03 56 12.102   +24 46 59.37  .89069 1.8457 159.7 22.7  440 166
2019 12 14 14  03 56 09.584   +24 46 48.82  .89093 1.8458 159.6 22.7  443 166
2019 12 14 15  03 56 07.071   +24 46 38.27  .89117 1.8458 159.6 22.7  445 166
2019 12 14 16  03 56 04.561   +24 46 27.73  .89141 1.8459 159.5 22.7  447 166
2019 12 14 17  03 56 02.056   +24 46 17.19  .89165 1.8460 159.5 22.7  450 166
2019 12 14 18  03 55 59.555   +24 46 06.66  .89190 1.8461 159.4 22.7  452 166
2019 12 14 19  03 55 57.058   +24 45 56.13  .89214 1.8462 159.4 22.7  454 166
2019 12 14 20  03 55 54.565   +24 45 45.60  .89238 1.8463 159.3 22.7  457 166
2019 12 14 21  03 55 52.076   +24 45 35.07  .89263 1.8464 159.3 22.7  459 166
2019 12 14 22  03 55 49.592   +24 45 24.55  .89287 1.8464 159.2 22.7  461 166
2019 12 14 23  03 55 47.111   +24 45 14.03  .89311 1.8465 159.2 22.7  464 166
2019 12 15 00  03 55 44.635   +24 45 03.51  .89336 1.8466 159.1 22.7  466 166
2019 12 15 01  03 55 42.163   +24 44 53.00  .89360 1.8467 159.1 22.7  468 166
2019 12 15 02  03 55 39.695   +24 44 42.49  .89385 1.8468 159.0 22.7  471 166
2019 12 15 03  03 55 37.231   +24 44 31.99  .89409 1.8469 159.0 22.7  473 166
2019 12 15 04  03 55 34.771   +24 44 21.49  .89434 1.8470 158.9 22.7  476 166
2019 12 15 05  03 55 32.316   +24 44 10.99  .89459 1.8471 158.9 22.7  478 166
2019 12 15 06  03 55 29.864   +24 44 00.49  .89483 1.8471 158.8 22.7  480 166
2019 12 15 07  03 55 27.417   +24 43 50.00  .89508 1.8472 158.8 22.7  483 166
2019 12 15 08  03 55 24.974   +24 43 39.52  .89533 1.8473 158.7 22.7  485 166
2019 12 15 09  03 55 22.535   +24 43 29.03  .89558 1.8474 158.7 22.7  488 166
2019 12 15 10  03 55 20.101   +24 43 18.55  .89583 1.8475 158.6 22.7  490 166
2019 12 15 11  03 55 17.670   +24 43 08.08  .89608 1.8476 158.6 22.7  492 167
2019 12 15 12  03 55 15.244   +24 42 57.61  .89632 1.8477 158.5 22.7  495 167
2019 12 15 13  03 55 12.822   +24 42 47.14  .89657 1.8477 158.5 22.7  497 167
2019 12 15 14  03 55 10.404   +24 42 36.67  .89682 1.8478 158.4 22.7  500 167
2019 12 15 15  03 55 07.990   +24 42 26.21  .89707 1.8479 158.4 22.7  502 167